Погода в Белокурихе

Россия / Алтайский край     51°59′45″N   84°59′02″E
темп.,
°C
ветер,
м/с
пор.,
м/с
влажн.,
%
обл.,
%
осадки,
мм/ч
давл.,
гПа
погр.,
м
5 августа, чт
чт501:00+14ю22755 0.0 100832
04:00+13ю22825 0.0 100828
07:00+14ю228695 0.3 100831
10:00+14юз119240 0.9 100847
13:00+21зюз236379 2.2 10071074
16:00+19зюз2572100 1.5 1007475
19:00+18ююз2473100 2.4 1007246
22:00+15ююз3482100 0.1 100859
6 августа, пт
пт601:00+13ю328993 0.1 100836
04:00+14ююз238674 0.2 100747
07:00+13ю228545 0.2 100845
10:00+18сз236766 0.4 1009603
13:00+17юз238097 1.6 1009432
16:00+19з3580100 1.5 1009772
19:00+18зюз238745 2.9 1009207
22:00+14ю229214 0.3 101118
7 августа, сб
сб701:00+12ю339212 0.3 101137
04:00+12ю33925 0.0 101036
07:00+13ю23905 0.0 101140
10:00+21вюв0156100 0.0 1011507
13:00+24св3239100 0.0 10101997
16:00+26всв323760 0.0 10092340
19:00+24в3346100 0.0 1009914
22:00+17юв227426 0.0 101015
8 августа, вс
вс801:00+16ююв228180 0.0 100925
04:00+14ю22845 0.0 100926
07:00+15ю227926 0.0 100930
10:00+23св125121 0.0 1009668
13:00+27св223896 0.0 10071852
16:00+28св333212 0.0 10072432
19:00+26св344261 0.0 1007946
22:00+19юв226743 0.0 100718
9 августа, пн
пн901:00+17ююв227331 0.0 100719
04:00+16ю227924 0.0 100624
07:00+16ю227637 0.0 100630
10:00+25в22487 0.0 1005598
13:00+30ссз2434100 0.0 10041749
16:00+30св2336100 0.0 10031878
19:00+19ю4576100 0.8 1005130
22:00+16ююв3593100 2.2 100695